Simultaneous Nadir Overpasses (SNOs) Predictions

Prediction of SNOs between NOAA-20 and AQUA Satellite Orbit:

Table of predicted SNOs for the next 14.0 days since TLE Epoch: 4/16/2022
Index Date (NOAA-20) Time (NOAA-20) Lat,Lon (NOAA-20) SZA (NOAA-20 ) Date (AQUA) Time (AQUA) Lat,Lon (AQUA) SZA (AQUA ) Distance(km) Time Diff (sec)
1 04/16/2022 11:08:11 -74.29, 67.30 90.83 04/16/2022 11:09:25 -74.21, 67.67 90.94 13.58 74
2 04/16/2022 11:57:55 77.07,-116.26 85.80 04/16/2022 11:57:52 77.08,-116.19 85.79 2.03 3
3 04/19/2022 03:24:09 -76.96,-168.28 94.99 04/19/2022 03:24:41 -76.95,-168.34 95.00 1.52 32
4 04/19/2022 04:14:38 77.61, 1.91 84.15 04/19/2022 04:13:52 77.61, 1.90 84.19 0.25 46
5 04/21/2022 18:50:30 76.51, 138.42 84.67 04/21/2022 18:51:35 76.51, 138.41 84.62 0.44 65
6 04/21/2022 19:40:57 -77.33, -50.93 96.40 04/21/2022 19:40:45 -77.33, -50.94 96.39 0.19 12
7 04/24/2022 11:07:13 77.10,-103.44 83.01 04/24/2022 11:07:34 77.10,-103.51 83.01 1.98 21
8 04/24/2022 11:57:42 -77.81, 67.10 97.94 04/24/2022 11:56:46 -77.80, 67.02 97.88 1.83 56
9 04/27/2022 02:33:34 -76.72,-156.53 97.37 04/27/2022 02:34:28 -76.72,-156.57 97.40 1.12 54
10 04/27/2022 03:24:01 77.46, 13.92 81.67 04/27/2022 03:23:37 77.46, 13.90 81.69 0.52 24
11 04/29/2022 18:50:17 -77.26, -38.54 98.90 04/29/2022 18:50:26 -77.25, -38.62 98.89 2.16 9



Historial Predications of SNOs between NOAA-20 and AQUA
